Location: *
(43.7000°S, 168.7000°W)
Time: 14:09:34
(UTC+00:00)

ATLAS 2AS CENTAUR R/B - Pass Details

Date: 07 July 2020
Orbit: 930 x 1282 km, 63.7° (Epoch: 19 July)

Event Time Altitude Azimuth Distance (km) Brightness Sun altitude
Exits shadow 16:30:00 16° 193° (SSW) 2,304 4.2 -24.1°
Drops below altitude 10° 16:33:09 10° 163° (SSE) 2,732 4.9 -23.5°
Sets 16:37:00 0° 142° (SE) 3,734 5.9 -22.9°
